TimeCDT,TemperatureF,Dew PointF,Humidity,Sea Level PressureIn,VisibilityMPH,Wind Direction,Wind SpeedMPH,Gust SpeedMPH,PrecipitationIn,Events,Conditions,WindDirDegrees,DateUTC
12:15 AM,80.6,71.6,74,30.07,10.0,Calm,Calm,-,N/A,Thunderstorm,Clear,0,2013-08-05 05:15:00
12:35 AM,80.6,71.6,74,30.07,10.0,Calm,Calm,-,N/A,Thunderstorm,Clear,0,2013-08-05 05:35:00
12:55 AM,80.6,71.6,74,30.06,10.0,West,3.5,-,N/A,Thunderstorm,Clear,260,2013-08-05 05:55:00
1:15 AM,80.6,71.6,74,30.06,10.0,East,4.6,-,N/A,,Scattered Clouds,100,2013-08-05 06:15:00
1:35 AM,80.6,71.6,74,30.06,10.0,Calm,Calm,-,N/A,,Mostly Cloudy,0,2013-08-05 06:35:00
1:55 AM,80.6,73.4,79,30.05,10.0,SE,3.5,-,N/A,,Mostly Cloudy,140,2013-08-05 06:55:00
2:15 AM,80.6,71.6,74,30.04,10.0,Calm,Calm,-,N/A,,Scattered Clouds,0,2013-08-05 07:15:00
2:35 AM,80.6,73.4,79,30.03,10.0,Calm,Calm,-,N/A,,Scattered Clouds,0,2013-08-05 07:35:00
2:55 AM,78.8,73.4,83,30.03,10.0,Calm,Calm,-,N/A,,Clear,0,2013-08-05 07:55:00
3:15 AM,78.8,73.4,83,30.03,10.0,Calm,Calm,-,N/A,,Scattered Clouds,0,2013-08-05 08:15:00
3:35 AM,78.8,73.4,83,30.03,10.0,Calm,Calm,-,N/A,,Scattered Clouds,0,2013-08-05 08:35:00
3:55 AM,78.8,71.6,78,30.03,10.0,Calm,Calm,-,N/A,,Clear,0,2013-08-05 08:55:00
4:15 AM,78.8,71.6,78,30.04,10.0,Calm,Calm,-,N/A,,Clear,0,2013-08-05 09:15:00
4:35 AM,77.0,71.6,83,30.03,10.0,Calm,Calm,-,N/A,,Clear,0,2013-08-05 09:35:00
4:55 AM,77.0,71.6,83,30.04,10.0,Calm,Calm,-,N/A,,Clear,0,2013-08-05 09:55:00
5:15 AM,77.0,71.6,83,30.04,10.0,Calm,Calm,-,N/A,,Clear,0,2013-08-05 10:15:00
5:35 AM,77.0,71.6,83,30.04,10.0,North,3.5,-,N/A,,Clear,360,2013-08-05 10:35:00
5:55 AM,77.0,71.6,83,30.05,10.0,Calm,Calm,-,N/A,,Clear,0,2013-08-05 10:55:00
6:15 AM,77.0,71.6,83,30.05,10.0,Calm,Calm,-,N/A,,Clear,0,2013-08-05 11:15:00
6:35 AM,77.0,71.6,83,30.05,10.0,Calm,Calm,-,N/A,,Clear,0,2013-08-05 11:35:00
6:55 AM,77.0,71.6,83,30.06,10.0,Calm,Calm,-,N/A,,Clear,0,2013-08-05 11:55:00
7:15 AM,78.8,73.4,83,30.07,10.0,Calm,Calm,-,N/A,,Clear,0,2013-08-05 12:15:00
7:35 AM,78.8,73.4,83,30.07,10.0,Calm,Calm,-,N/A,,Clear,0,2013-08-05 12:35:00
7:55 AM,80.6,73.4,79,30.08,10.0,WNW,4.6,-,N/A,,Clear,300,2013-08-05 12:55:00
8:15 AM,82.4,73.4,74,30.08,10.0,NW,6.9,-,N/A,,Clear,310,2013-08-05 13:15:00
8:35 AM,84.2,75.2,74,30.08,10.0,NW,6.9,-,N/A,,Clear,320,2013-08-05 13:35:00
8:55 AM,84.2,75.2,74,30.08,10.0,NW,8.1,-,N/A,,Clear,310,2013-08-05 13:55:00
9:15 AM,86.0,75.2,70,30.08,10.0,WNW,10.4,-,N/A,,Clear,300,2013-08-05 14:15:00
9:35 AM,87.8,73.4,62,30.08,10.0,WNW,9.2,-,N/A,,Clear,300,2013-08-05 14:35:00
9:55 AM,87.8,73.4,62,30.08,10.0,NW,5.8,-,N/A,,Scattered Clouds,320,2013-08-05 14:55:00
10:15 AM,87.8,73.4,62,30.08,10.0,West,9.2,-,N/A,,Scattered Clouds,280,2013-08-05 15:15:00
10:35 AM,89.6,73.4,59,30.08,10.0,WNW,5.8,-,N/A,,Clear,300,2013-08-05 15:35:00
10:55 AM,89.6,73.4,59,30.08,10.0,NW,9.2,-,N/A,,Scattered Clouds,310,2013-08-05 15:55:00
11:15 AM,91.4,73.4,55,30.07,10.0,WNW,8.1,-,N/A,,Clear,300,2013-08-05 16:15:00
11:35 AM,91.4,73.4,55,30.07,10.0,West,6.9,-,N/A,,Scattered Clouds,270,2013-08-05 16:35:00
11:55 AM,93.2,71.6,49,30.06,10.0,WNW,9.2,-,N/A,,Scattered Clouds,290,2013-08-05 16:55:00
12:15 PM,93.2,71.6,49,30.05,10.0,West,4.6,-,N/A,,Clear,280,2013-08-05 17:15:00
12:35 PM,91.4,71.6,52,30.05,10.0,WNW,4.6,-,N/A,,Scattered Clouds,290,2013-08-05 17:35:00
12:55 PM,95.0,71.6,47,30.04,10.0,Calm,Calm,-,N/A,,Scattered Clouds,0,2013-08-05 17:55:00
1:15 PM,93.2,69.8,46,30.03,10.0,NW,4.6,-,N/A,,Scattered Clouds,320,2013-08-05 18:15:00
1:35 PM,95.0,69.8,44,30.02,10.0,WSW,6.9,-,N/A,,Scattered Clouds,250,2013-08-05 18:35:00
1:55 PM,95.0,69.8,44,30.02,10.0,NW,6.9,-,N/A,,Clear,320,2013-08-05 18:55:00
2:15 PM,95.0,64.4,36,30.01,10.0,West,5.8,-,N/A,,Scattered Clouds,260,2013-08-05 19:15:00
2:35 PM,96.8,68.0,39,30.00,10.0,NW,4.6,-,N/A,,Clear,320,2013-08-05 19:35:00
2:55 PM,96.8,64.4,34,29.99,10.0,WNW,4.6,-,N/A,,Clear,300,2013-08-05 19:55:00
3:15 PM,96.8,60.8,30,29.98,10.0,West,9.2,-,N/A,,Clear,280,2013-08-05 20:15:00
3:35 PM,96.8,64.4,34,29.97,10.0,WNW,10.4,-,N/A,,Clear,300,2013-08-05 20:35:00
3:55 PM,98.6,60.8,29,29.98,10.0,West,9.2,-,N/A,,Clear,270,2013-08-05 20:55:00
4:15 PM,96.8,66.2,37,29.98,10.0,NW,6.9,-,N/A,,Clear,320,2013-08-05 21:15:00
4:35 PM,96.8,64.4,34,29.97,10.0,WNW,9.2,-,N/A,,Scattered Clouds,300,2013-08-05 21:35:00
4:55 PM,96.8,62.6,32,29.97,10.0,WNW,9.2,-,N/A,,Clear,290,2013-08-05 21:55:00
5:15 PM,96.8,62.6,32,29.97,10.0,West,8.1,-,N/A,,Clear,280,2013-08-05 22:15:00
5:35 PM,96.8,64.4,34,29.96,10.0,West,6.9,-,N/A,,Clear,270,2013-08-05 22:35:00
5:55 PM,96.8,66.2,37,29.97,10.0,West,5.8,-,N/A,,Clear,280,2013-08-05 22:55:00
6:15 PM,95.0,66.2,39,29.97,10.0,WNW,6.9,-,N/A,,Clear,300,2013-08-05 23:15:00
6:35 PM,95.0,66.2,39,29.97,10.0,WNW,5.8,-,N/A,,Scattered Clouds,300,2013-08-05 23:35:00
6:55 PM,93.2,69.8,46,29.98,10.0,West,4.6,-,N/A,,Clear,280,2013-08-05 23:55:00
7:15 PM,91.4,69.8,49,29.98,10.0,West,6.9,-,N/A,,Clear,270,2013-08-06 00:15:00
7:35 PM,91.4,69.8,49,29.99,10.0,West,3.5,-,N/A,,Clear,270,2013-08-06 00:35:00
7:55 PM,87.8,71.6,58,29.98,10.0,WNW,3.5,-,N/A,,Clear,290,2013-08-06 00:55:00
8:15 PM,86.0,73.4,66,29.99,10.0,Calm,Calm,-,N/A,,Clear,0,2013-08-06 01:15:00
8:35 PM,86.0,73.4,66,29.99,10.0,Calm,Calm,-,N/A,,Clear,0,2013-08-06 01:35:00
8:55 PM,87.8,73.4,62,29.99,10.0,WSW,5.8,-,N/A,,Clear,240,2013-08-06 01:55:00
9:15 PM,86.0,73.4,66,30.00,10.0,West,5.8,-,N/A,,Clear,260,2013-08-06 02:15:00
9:35 PM,86.0,73.4,66,30.01,10.0,Calm,Calm,-,N/A,,Clear,0,2013-08-06 02:35:00
9:55 PM,86.0,73.4,66,30.01,10.0,WSW,4.6,-,N/A,,Clear,240,2013-08-06 02:55:00
10:15 PM,84.2,73.4,70,30.01,10.0,SSW,3.5,-,N/A,,Clear,200,2013-08-06 03:15:00
10:35 PM,84.2,73.4,70,30.01,10.0,East,3.5,-,N/A,,Clear,100,2013-08-06 03:35:00
10:55 PM,82.4,73.4,74,30.00,10.0,Calm,Calm,-,N/A,,Clear,0,2013-08-06 03:55:00
11:15 PM,82.4,73.4,74,30.00,10.0,Calm,Calm,-,N/A,,Clear,0,2013-08-06 04:15:00
11:35 PM,80.6,73.4,79,30.00,10.0,Calm,Calm,-,N/A,,Clear,0,2013-08-06 04:35:00
11:55 PM,80.6,73.4,79,29.99,10.0,SSE,3.5,-,N/A,,Clear,150,2013-08-06 04:55:00